Location: Unspecified
(0.0000°N, 0.0000°E)
Time: 21:23:25

Vanguard 1 Rocket - Pass Details

Date: 11 December 2017
Orbit: 655 x 4222 km, 34.3° (Epoch: 20 March)

Event Time Altitude Azimuth Distance (km) Brightness Sun altitude
Rises 23:59:02 0° 314° (NW) 7,859 - -67.0°
Reaches altitude 10° 00:04:18 10° 319° (NW) 7,105 - -66.8°
Maximum altitude 00:30:03 60° 35° (NE) 4,398 - -65.3°
Exits shadow 00:40:13 40° 93° (E) 4,621 10.8 -64.3°
Drops below altitude 10° 00:50:07 10° 111° (ESE) 5,828 11.7 -63.2°
Sets 00:53:49 0° 114° (ESE) 6,463 12.1 -62.7°
